Torna al catalogo

STARLINK-11423

AttivoComunicazioniVLEO
NORAD 61950·PAYLOAD·🇺🇸 United States

Lanciato Nov 14, 2024 da Vandenberg Space Force Base

Loading…

Prossimi Passaggi (prossime 24 ore)

TLE

AggiornatoSource: CelesTrak SupGP

Epoca: Sep 14, 2026, 20:52 UTC

1 61950C 24209M   26257.86993056 -.00001576  00000+0 -12978-4 0  2574
2 61950  53.1567 158.6734 0001091  91.9283 166.2609 15.69719695    16

Traccia STARLINK-11423 in tempo reale con AllMySat

Download on the App Store